Location: Eyeline Observatory
(43.2182°N, 78.8632°W)
Time: 05:25:36
(UTC-04:00)

Tiangong 2 - Pass Details

Date: 12 October 2017
Orbit: 388 x 391 km, 42.8° (Epoch: 23 October)

Event Time Altitude Azimuth Distance (km) Brightness Sun altitude
Exits shadow 06:48:28 10° 266° (W) 1,419 3.3 -7.6°
Maximum altitude 06:51:40 85° 177° (S) 396 1.1 -7.0°
Drops below altitude 10° 06:54:53 10° 90° (E) 1,423 5.8 -6.4°
Sets 06:56:58 0° 90° (E) 2,279 7.6 -6.1°
